When you browse on this site, cookies collect data to enhance your experience and personalize the content and advertising you see.
Visit our Privacy Policy to learn more. By continuing to use the site, you agree to this use of cookies and data.
  • In Lithuania
  • List of Countries
  • For 7 days
  • Water Temperature
  • Satellite Maps
  • Weather Map
  • Weather Widgets
  • user-avatar
    Login

    Hourly Weather Kadіyivka (Stahanov)

    Today, 18 November, Sunday

    Time Temperature Precipitation Wind Pressure Humidity
    00:00 -5°C° 0 mm 2 mps 752 mmHg 60%
    01:00 -5°C° 0 mm 2 mps 752 mmHg 60%
    02:00 -5°C° 0 mm 2 mps 751 mmHg 60%
    03:00 -5°C° 0 mm 2 mps 751 mmHg 57%
    04:00 -3°C° 0 mm 1 mps 751 mmHg 57%
    05:00 -3°C° 0 mm 1 mps 750 mmHg 57%
    06:00 -3°C° 0 mm 1 mps 750 mmHg 57%
    07:00 -3°C° 0 mm 1 mps 750 mmHg 55%
    08:00 -3°C° 0 mm 0 mps 750 mmHg 54%
    09:00 -3°C° 0 mm 0 mps 749 mmHg 51%
    10:00 -2°C° 0 mm 0 mps 749 mmHg 49%
    11:00 -1°C° 0 mm 0 mps 749 mmHg 47%
    12:00 +1°C° 0 mm 1 mps 749 mmHg 44%
    13:00 +2°C° 0 mm 1 mps 749 mmHg 45%
    14:00 +1°C° 0 mm 0 mps 749 mmHg 46%
    15:00 +1°C° 0 mm 0 mps 749 mmHg 49%
    16:00 0°C° 0 mm 0 mps 748 mmHg 52%
    17:00 -1°C° 0 mm 0 mps 748 mmHg 55%
    18:00 -1°C° 0 mm 1 mps 748 mmHg 57%
    19:00 -1°C° 0 mm 1 mps 748 mmHg 59%
    20:00 -1°C° 0 mm 1 mps 748 mmHg 60%
    21:00 -1°C° 0 mm 1 mps 748 mmHg 61%
    22:00 -1°C° 0 mm 1 mps 748 mmHg 61%
    23:00 -1°C° 0 mm 1 mps 749 mmHg 62%

    Tomorrow, 19 November, Monday

    Time Temperature Precipitation Wind Pressure Humidity
    00:00 -1°C° 0 mm 1 mps 749 mmHg 63%
    01:00 -1°C° 0 mm 1 mps 749 mmHg 65%
    02:00 -2°C° 0 mm 1 mps 748 mmHg 66%
    03:00 -2°C° 0 mm 1 mps 748 mmHg 68%
    04:00 -2°C° 0 mm 1 mps 748 mmHg 68%
    05:00 -3°C° 0 mm 1 mps 749 mmHg 69%
    06:00 -3°C° 0 mm 1 mps 749 mmHg 70%
    07:00 -2°C° 0 mm 1 mps 749 mmHg 69%
    08:00 -4°C° 0 mm 2 mps 749 mmHg 68%
    09:00 -4°C° 0 mm 2 mps 749 mmHg 68%
    10:00 -3°C° 0 mm 2 mps 749 mmHg 67%
    11:00 -2°C° 0 mm 3 mps 749 mmHg 65%
    12:00 -1°C° 0 mm 3 mps 749 mmHg 64%
    13:00 0°C° 0 mm 3 mps 749 mmHg 66%
    14:00 0°C° 0 mm 3 mps 749 mmHg 67%
    15:00 0°C° 0 mm 3 mps 748 mmHg 69%
    16:00 -1°C° 0 mm 3 mps 748 mmHg 72%
    17:00 -1°C° 0 mm 3 mps 748 mmHg 75%
    18:00 -3°C° 0 mm 4 mps 748 mmHg 78%
    19:00 -3°C° 0 mm 4 mps 748 mmHg 75%
    20:00 -3°C° 0 mm 4 mps 747 mmHg 73%
    21:00 -3°C° 0 mm 4 mps 747 mmHg 70%
    22:00 -3°C° 0 mm 4 mps 747 mmHg 70%
    23:00 -3°C° 0 mm 4 mps 747 mmHg 70%

    Day after tomorrow, 20 November, Tuesday

    Time Temperature Precipitation Wind Pressure Humidity
    00:00 -3°C° 0 mm 4 mps 747 mmHg 70%
    01:00 -3°C° 0.1 mm 4 mps 746 mmHg 71%
    02:00 -3°C° 0.1 mm 4 mps 746 mmHg 73%
    03:00 -4°C° 0.1 mm 5 mps 746 mmHg 75%
    04:00 -4°C° 0.4 mm 5 mps 745 mmHg 78%
    05:00 -4°C° 0.4 mm 5 mps 745 mmHg 81%
    06:00 -4°C° 0.4 mm 5 mps 744 mmHg 83%
    07:00 -4°C° 0.8 mm 6 mps 744 mmHg 86%
    08:00 -4°C° 0.8 mm 6 mps 744 mmHg 89%
    09:00 -4°C° 0.8 mm 6 mps 744 mmHg 91%
    10:00 -4°C° 0.6 mm 6 mps 744 mmHg 92%
    11:00 -3°C° 0.6 mm 6 mps 744 mmHg 93%
    12:00 -3°C° 0.6 mm 6 mps 743 mmHg 93%
    13:00 -3°C° 0.5 mm 6 mps 743 mmHg 93%
    14:00 -3°C° 0.5 mm 6 mps 743 mmHg 94%
    15:00 -3°C° 0.5 mm 6 mps 743 mmHg 94%
    16:00 -3°C° 0.1 mm 6 mps 743 mmHg 93%
    17:00 -3°C° 0.1 mm 6 mps 744 mmHg 93%
    18:00 -2°C° 0.1 mm 5 mps 744 mmHg 92%
    19:00 -4°C° 0 mm 5 mps 744 mmHg 92%
    20:00 -4°C° 0 mm 5 mps 745 mmHg 91%
    21:00 -4°C° 0 mm 5 mps 745 mmHg 91%
    22:00 -3°C° 0 mm 4 mps 745 mmHg 90%
    23:00 -4°C° 0 mm 4 mps 746 mmHg 90%

    21 November, Wednesday

    Time Temperature Precipitation Wind Pressure Humidity
    00:00 -4°C° 0 mm 3 mps 746 mmHg 89%
    01:00 -5°C° 0 mm 3 mps 746 mmHg 89%
    02:00 -5°C° 0 mm 3 mps 746 mmHg 89%
    03:00 -4°C° 0 mm 2 mps 746 mmHg 89%
    04:00 -5°C° 0 mm 2 mps 746 mmHg 89%
    05:00 -6°C° 0 mm 3 mps 746 mmHg 88%
    06:00 -7°C° 0 mm 3 mps 746 mmHg 88%
    07:00 -7°C° 0 mm 3 mps 746 mmHg 87%
    08:00 -7°C° 0 mm 3 mps 746 mmHg 87%
    09:00 -6°C° 0 mm 3 mps 746 mmHg 86%
    10:00 -5°C° 0 mm 3 mps 746 mmHg 85%
    11:00 -5°C° 0 mm 3 mps 746 mmHg 84%
    12:00 -4°C° 0 mm 3 mps 746 mmHg 83%
    13:00 -4°C° 0 mm 3 mps 746 mmHg 85%
    14:00 -2°C° 0 mm 3 mps 746 mmHg 86%
    15:00 -2°C° 0 mm 3 mps 746 mmHg 87%
    16:00 -4°C° 0 mm 3 mps 745 mmHg 89%
    17:00 -5°C° 0 mm 3 mps 745 mmHg 90%
    18:00 -5°C° 0 mm 3 mps 745 mmHg 92%
    19:00 -6°C° 0 mm 3 mps 745 mmHg 91%
    20:00 -6°C° 0 mm 3 mps 745 mmHg 90%
    21:00 -5°C° 0 mm 2 mps 745 mmHg 90%
    22:00 -6°C° 0 mm 2 mps 745 mmHg 89%
    23:00 -6°C° 0 mm 2 mps 745 mmHg 88%

    22 November, Thursday

    Time Temperature Precipitation Wind Pressure Humidity
    00:00 -6°C° 0 mm 2 mps 745 mmHg 87%
    01:00 -6°C° 0 mm 2 mps 745 mmHg 87%
    02:00 -6°C° 0 mm 2 mps 745 mmHg 87%
    03:00 -6°C° 0 mm 2 mps 745 mmHg 88%
    04:00 -7°C° 0 mm 2 mps 745 mmHg 88%
    05:00 -7°C° 0 mm 2 mps 745 mmHg 89%
    06:00 -7°C° 0 mm 2 mps 745 mmHg 90%
    07:00 -7°C° 0 mm 2 mps 746 mmHg 90%
    08:00 -6°C° 0 mm 2 mps 746 mmHg 91%
    09:00 -6°C° 0 mm 2 mps 746 mmHg 91%
    10:00 -6°C° 0 mm 3 mps 746 mmHg 89%
    11:00 -5°C° 0 mm 3 mps 746 mmHg 87%
    12:00 -4°C° 0 mm 3 mps 746 mmHg 84%
    13:00 -4°C° 0 mm 3 mps 746 mmHg 83%
    14:00 -4°C° 0 mm 3 mps 746 mmHg 82%
    15:00 -2°C° 0 mm 3 mps 745 mmHg 81%
    16:00 -4°C° 0 mm 3 mps 745 mmHg 82%
    17:00 -5°C° 0 mm 3 mps 745 mmHg 83%
    18:00 -5°C° 0 mm 2 mps 745 mmHg 84%
    19:00 -6°C° 0 mm 3 mps 745 mmHg 84%
    20:00 -7°C° 0 mm 3 mps 745 mmHg 84%
    21:00 -7°C° 0 mm 3 mps 745 mmHg 84%
    22:00 -7°C° 0 mm 3 mps 746 mmHg 84%
    23:00 -7°C° 0 mm 3 mps 746 mmHg 85%

    23 November, Friday

    Time Temperature Precipitation Wind Pressure Humidity
    00:00 -7°C° 0 mm 3 mps 746 mmHg 85%
    01:00 -7°C° 0 mm 3 mps 746 mmHg 86%
    02:00 -7°C° 0 mm 3 mps 746 mmHg 87%
    03:00 -7°C° 0 mm 3 mps 746 mmHg 87%
    04:00 -7°C° 0 mm 3 mps 747 mmHg 88%
    05:00 -7°C° 0 mm 3 mps 747 mmHg 89%
    06:00 -7°C° 0 mm 3 mps 747 mmHg 90%
    07:00 -7°C° 0 mm 3 mps 748 mmHg 90%
    08:00 -7°C° 0 mm 3 mps 749 mmHg 90%
    09:00 -7°C° 0 mm 3 mps 749 mmHg 91%
    10:00 -6°C° 0 mm 3 mps 750 mmHg 88%
    11:00 -4°C° 0 mm 3 mps 751 mmHg 86%
    12:00 -2°C° 0 mm 3 mps 751 mmHg 83%
    13:00 -2°C° 0 mm 2 mps 751 mmHg 83%
    14:00 -2°C° 0 mm 2 mps 752 mmHg 82%
    15:00 -2°C° 0 mm 2 mps 752 mmHg 82%
    16:00 -3°C° 0 mm 2 mps 752 mmHg 82%
    17:00 -2°C° 0 mm 1 mps 752 mmHg 82%
    18:00 -3°C° 0 mm 1 mps 753 mmHg 83%
    19:00 -4°C° 0 mm 1 mps 753 mmHg 82%
    20:00 -5°C° 0 mm 0 mps 753 mmHg 81%
    21:00 -5°C° 0 mm 0 mps 753 mmHg 81%
    22:00 -5°C° 0 mm 0 mps 753 mmHg 80%
    23:00 -4°C° 0 mm 1 mps 753 mmHg 80%
    Show more